Location: P�rn�nmaa
(61.1833°N, 23.0000°E)
Time: 18:27:22
(UTC+00:00)

Meteor 2-6 Rocket - Pass Details

Date: 08 December 2019
Orbit: 806 x 914 km, 81.3° (Epoch: 16 January)

Event Time Altitude Azimuth Distance (km) Brightness Sun altitude
Rises 15:53:19 0° 189° (S) 3,317 7.7 -16.7°
Reaches altitude 10° 15:55:41 10° 188° (S) 2,389 6.9 -17.0°
Maximum altitude 16:01:04 77° 103° (ESE) 841 4.0 -17.6°
Enters shadow 16:06:14 12° 19° (NNE) 2,316 6.2 -18.2°
